Weather History for Palacios, TX

Change the Weather History Date:

Tuesday, November 19, 2013

  Actual Average Record
Temperature  
Mean Temperature 64 °F -  
Max Temperature 70 °F 72 °F 82 °F (1950)
Min Temperature 59 °F 55 °F 32 °F (1959)
Growing Degree Days 14 (Base 50)    
Moisture  
Dew Point 53 °F    
Average Humidity 67    
Maximum Humidity 83    
Minimum Humidity 54    
Precipitation  
Precipitation 0.00 in - - ()
Sea Level Pressure  
Sea Level Pressure 30.04 in    
Wind  
Wind Speed 13 mph (ENE)    
Max Wind Speed 17 mph    
Max Gust Speed 32 mph    
Visibility 10 miles    
Events      
Averages and records for this station are not official NWS values.
T = Trace of Precipitation, MM = Missing Value Source: NWS Daily Summary

Daily Weather History Graph

Daily Weather History Graph

Search for Another Location

Airport:

Trip Planner

Search our weather history database for the weather conditions in past years. The results will help you decide how hot, cold, wet, or windy it might be!

Date:

Astronomy

Nov. 19, 2013 Rise Set
Actual Time 6:51 AM CST 5:29 PM CST
Civil Twilight 6:26 AM CST 5:54 PM CST
Nautical Twilight 5:57 AM CST 6:23 PM CST
Astronomical Twilight 5:29 AM CST 6:51 PM CST
Moon 7:22 PM CST (11/19) 8:29 AM CST (11/19)
Length of Visible Light 11h 28m
Length of Day
10h 38m
Waning Gibbous, 96% of the Moon is Illuminated
Nov 19
Waning Gibbous
Nov 25
Last Quarter
Dec 2
New
Dec 9
First Quarter
Dec 17
Full

Hourly Weather History & Observations

Time (CST) Temp. Dew Point Humidity Pressure Visibility Wind Dir Wind Speed Gust Speed Precip Events Conditions
1:53 AM 66.0 °F 48.9 °F 54% 30.03 in 10.0 mi NE 15.0 mph - N/A   Overcast
2:53 AM 64.0 °F 48.0 °F 56% 30.02 in 10.0 mi ENE 13.8 mph - N/A   Scattered Clouds
3:53 AM 63.0 °F 46.9 °F 56% 30.03 in 10.0 mi ENE 12.7 mph - N/A   Clear
4:53 AM 63.0 °F 46.9 °F 56% 30.02 in 10.0 mi ENE 15.0 mph - N/A   Mostly Cloudy
5:53 AM 63.0 °F 48.0 °F 58% 30.04 in 10.0 mi NE 11.5 mph - N/A   Overcast
6:53 AM 63.0 °F 48.9 °F 60% 30.06 in 10.0 mi NE 12.7 mph - N/A   Overcast
7:51 AM 62.6 °F 50.0 °F 63% 30.08 in 10.0 mi NE 12.7 mph - N/A   Overcast
7:53 AM 63.0 °F 50.0 °F 63% 30.08 in 10.0 mi NE 12.7 mph - N/A   Overcast
8:53 AM 64.9 °F 52.0 °F 63% 30.09 in 10.0 mi NE 12.7 mph - N/A   Overcast
9:53 AM 66.9 °F 54.0 °F 63% 30.10 in 10.0 mi NE 12.7 mph - N/A   Overcast
10:53 AM 68.0 °F 55.9 °F 65% 30.10 in 10.0 mi East 16.1 mph 24.2 mph N/A   Overcast
11:53 AM 68.0 °F 55.9 °F 65% 30.08 in 10.0 mi ENE 17.3 mph 24.2 mph N/A   Overcast
12:53 PM 69.1 °F 55.9 °F 63% 30.05 in 10.0 mi East 16.1 mph - N/A   Overcast
1:53 PM 69.1 °F 57.0 °F 65% 30.02 in 10.0 mi ENE 16.1 mph - N/A   Overcast
2:53 PM 70.0 °F 55.9 °F 61% 30.01 in 10.0 mi East 15.0 mph - N/A   Overcast
3:53 PM 68.0 °F 55.9 °F 65% 30.01 in 10.0 mi East 12.7 mph - N/A   Overcast
4:53 PM 68.0 °F 57.0 °F 68% 30.01 in 10.0 mi East 15.0 mph - N/A   Overcast
5:53 PM 64.9 °F 55.9 °F 73% 30.02 in 10.0 mi ENE 11.5 mph - N/A   Overcast
6:53 PM 63.0 °F 55.9 °F 78% 30.03 in 10.0 mi ENE 10.4 mph 32.2 mph N/A   Clear
7:53 PM 61.0 °F 55.0 °F 81% 30.02 in 10.0 mi ENE 9.2 mph - N/A   Mostly Cloudy
8:53 PM 59.0 °F 54.0 °F 83% 30.03 in 10.0 mi NE 10.4 mph - N/A   Scattered Clouds
9:53 PM 60.1 °F 54.0 °F 80% 30.03 in 10.0 mi NE 8.1 mph - N/A   Overcast
10:53 PM 62.1 °F 55.9 °F 80% 30.01 in 10.0 mi ENE 8.1 mph - N/A   Overcast
11:53 PM 64.0 °F 57.0 °F 78% 30.01 in 10.0 mi East 9.2 mph - N/A   Overcast